Zurück zum Katalog

FLOCK 4H 2

AktivWissenschaftSSO
NORAD 66705·PAYLOAD·🇺🇸 United States

Gestartet Nov 28, 2025 von Vandenberg Space Force Base

Loading…

Nächste Überflüge (nächste 24 Stunden)

TLE

AktuellSource: CelesTrak SupGP

Epoche: Sep 14, 2026, 12:45 UTC

1 66705C 25276AR  26257.53136574  .00007549  00000+0  33330-3 0  2578
2 66705  97.4099 329.8996 0002181  62.5691 211.9539 15.21813988    18

Verfolge FLOCK 4H 2 in Echtzeit mit AllMySat

Download on the App Store